Location: R�o Tuerlos
(40.6704°N, 4.4622°W)
Time: 05:02:48
(UTC+00:00)

DELTA 2 DEB (DPAF) - Pass Details

Date: 07 June 2020
Orbit: 641 x 647 km, 98.3° (Epoch: 14 July)

Event Time Altitude Azimuth Distance (km) Brightness Sun altitude
Exits shadow 01:40:12 71° 142° (SE) 685 4.0 -23.6°
Maximum altitude 01:40:39 82° 75° (ENE) 658 4.1 -23.6°
Drops below altitude 10° 01:45:08 10° 349° (NNW) 2,056 7.5 -23.3°
Sets 01:47:21 0° 348° (NNW) 2,971 8.4 -23.1°
